Year,Month,Day,Hour,Minute,Value (Times are PST for temperature in C)
2014,09,01,00,00,17.00
2014,09,01,00,01,17.00
2014,09,01,00,02,17.00
2014,09,01,00,03,17.00
2014,09,01,00,04,17.00
2014,09,01,00,05,17.00
2014,09,01,00,06,17.00
2014,09,01,00,07,17.00
2014,09,01,00,08,17.00
2014,09,01,00,09,17.00
2014,09,01,00,10,17.00
2014,09,01,00,11,17.00
2014,09,01,00,12,17.00
2014,09,01,00,13,17.00
2014,09,01,00,14,17.00
2014,09,01,00,15,17.00
2014,09,01,00,16,17.00
2014,09,01,00,17,17.00
2014,09,01,00,18,17.00
2014,09,01,00,19,17.00
2014,09,01,00,20,17.00
2014,09,01,00,21,16.90
2014,09,01,00,22,16.90
2014,09,01,00,23,16.90
2014,09,01,00,24,16.90
2014,09,01,00,25,16.90
2014,09,01,00,26,16.90
2014,09,01,00,27,16.90
2014,09,01,00,28,16.90
2014,09,01,00,29,16.90
2014,09,01,00,30,16.90
2014,09,01,00,31,16.90
2014,09,01,00,32,16.90
2014,09,01,00,33,16.90
2014,09,01,00,34,16.90
2014,09,01,00,35,16.80
2014,09,01,00,36,16.80
2014,09,01,00,37,16.80
2014,09,01,00,38,16.80
2014,09,01,00,39,16.80
2014,09,01,00,40,16.80
2014,09,01,00,41,16.80
2014,09,01,00,42,16.80
2014,09,01,00,43,16.80
2014,09,01,00,44,16.80
2014,09,01,00,45,16.80
2014,09,01,00,46,16.80
2014,09,01,00,47,16.80
2014,09,01,00,48,16.70
2014,09,01,00,49,16.70
2014,09,01,00,50,16.70
2014,09,01,00,51,16.70
2014,09,01,00,52,16.70
2014,09,01,00,53,16.70
2014,09,01,00,54,16.70
2014,09,01,00,55,16.60
2014,09,01,00,56,16.60
2014,09,01,00,57,16.60
2014,09,01,00,58,16.60
2014,09,01,00,59,16.60
2014,09,01,01,00,16.60
2014,09,01,01,01,16.50
2014,09,01,01,02,16.50
2014,09,01,01,03,16.50
2014,09,01,01,04,16.50
2014,09,01,01,05,16.50
2014,09,01,01,06,16.50
2014,09,01,01,07,16.50
2014,09,01,01,08,16.50
2014,09,01,01,09,16.50
2014,09,01,01,10,16.40
2014,09,01,01,11,16.40
2014,09,01,01,12,16.40
2014,09,01,01,13,16.40
2014,09,01,01,14,16.40
2014,09,01,01,15,16.40
2014,09,01,01,16,16.40
2014,09,01,01,17,16.40
2014,09,01,01,18,16.40
2014,09,01,01,19,16.40
2014,09,01,01,20,16.40
2014,09,01,01,21,16.40
2014,09,01,01,22,16.40
2014,09,01,01,23,16.40
2014,09,01,01,24,16.40
2014,09,01,01,25,16.40
2014,09,01,01,26,16.40
2014,09,01,01,27,16.40
2014,09,01,01,28,16.30
2014,09,01,01,29,16.30
2014,09,01,01,30,16.30
2014,09,01,01,31,16.30
2014,09,01,01,32,16.30
2014,09,01,01,33,16.30
2014,09,01,01,34,16.30
2014,09,01,01,35,16.20
2014,09,01,01,36,16.20
2014,09,01,01,37,16.20
2014,09,01,01,38,16.20
2014,09,01,01,39,16.20
2014,09,01,01,40,16.20
2014,09,01,01,41,16.20
2014,09,01,01,42,16.20
2014,09,01,01,43,16.20
2014,09,01,01,44,16.20
2014,09,01,01,45,16.20
2014,09,01,01,46,16.30
2014,09,01,01,47,16.30
2014,09,01,01,48,16.30
2014,09,01,01,49,16.30
2014,09,01,01,50,16.30
2014,09,01,01,51,16.30
2014,09,01,01,52,16.30
2014,09,01,01,53,16.20
2014,09,01,01,54,16.20
2014,09,01,01,55,16.20
2014,09,01,01,56,16.20
2014,09,01,01,57,16.10
2014,09,01,01,58,16.10
2014,09,01,01,59,16.10
2014,09,01,02,00,16.10
2014,09,01,02,01,16.10
2014,09,01,02,02,16.10
2014,09,01,02,03,16.00
2014,09,01,02,04,16.00
2014,09,01,02,05,16.10
2014,09,01,02,06,16.10
2014,09,01,02,07,16.10
2014,09,01,02,08,16.10
2014,09,01,02,09,16.10
2014,09,01,02,10,16.10
2014,09,01,02,11,16.10
2014,09,01,02,12,16.10
2014,09,01,02,13,16.10
2014,09,01,02,14,16.00
2014,09,01,02,15,16.00
2014,09,01,02,16,15.90
2014,09,01,02,17,15.90
2014,09,01,02,18,15.90
2014,09,01,02,19,15.80
2014,09,01,02,20,15.80
2014,09,01,02,21,15.70
2014,09,01,02,22,15.70
2014,09,01,02,23,15.60
2014,09,01,02,24,15.60
2014,09,01,02,25,15.50
2014,09,01,02,26,15.50
2014,09,01,02,27,15.40
2014,09,01,02,28,15.40
2014,09,01,02,29,15.30
2014,09,01,02,30,15.30
2014,09,01,02,31,15.20
2014,09,01,02,32,15.20
2014,09,01,02,33,15.10
2014,09,01,02,34,15.00
2014,09,01,02,35,15.00
2014,09,01,02,36,15.00
2014,09,01,02,37,15.00
2014,09,01,02,38,15.00
2014,09,01,02,39,15.00
2014,09,01,02,40,14.90
2014,09,01,02,41,14.80
2014,09,01,02,42,14.80
2014,09,01,02,43,14.70
2014,09,01,02,44,14.70
2014,09,01,02,45,14.60
2014,09,01,02,46,14.60
2014,09,01,02,47,14.50
2014,09,01,02,48,14.50
2014,09,01,02,49,14.40
2014,09,01,02,50,14.40
2014,09,01,02,51,14.40
2014,09,01,02,52,14.40
2014,09,01,02,53,14.40
2014,09,01,02,54,14.30
2014,09,01,02,55,14.30
2014,09,01,02,56,14.30
2014,09,01,02,57,14.30
2014,09,01,02,58,14.30
2014,09,01,02,59,14.30
2014,09,01,03,00,14.30
2014,09,01,03,01,14.20
2014,09,01,03,02,14.20
2014,09,01,03,03,14.10
2014,09,01,03,04,14.10
2014,09,01,03,05,14.10
2014,09,01,03,06,14.00
2014,09,01,03,07,14.00
2014,09,01,03,08,13.90
2014,09,01,03,09,13.90
2014,09,01,03,10,13.90
2014,09,01,03,11,13.90
2014,09,01,03,12,13.90
2014,09,01,03,13,14.00
2014,09,01,03,14,14.00
2014,09,01,03,15,14.10
2014,09,01,03,16,14.10
2014,09,01,03,17,14.20
2014,09,01,03,18,14.20
2014,09,01,03,19,14.30
2014,09,01,03,20,14.30
2014,09,01,03,21,14.30
2014,09,01,03,22,14.30
2014,09,01,03,23,14.40
2014,09,01,03,24,14.40
2014,09,01,03,25,14.40
2014,09,01,03,26,14.40
2014,09,01,03,27,14.40
2014,09,01,03,28,14.40
2014,09,01,03,29,14.40
2014,09,01,03,30,14.50
2014,09,01,03,31,14.50
2014,09,01,03,32,14.50
2014,09,01,03,33,14.50
2014,09,01,03,34,14.50
2014,09,01,03,35,14.40
2014,09,01,03,36,14.40
2014,09,01,03,37,14.40
2014,09,01,03,38,14.40
2014,09,01,03,39,14.40
2014,09,01,03,40,14.40
2014,09,01,03,41,14.40
2014,09,01,03,42,14.40
2014,09,01,03,43,14.40
2014,09,01,03,44,14.40
2014,09,01,03,45,14.40
2014,09,01,03,46,14.40
2014,09,01,03,47,14.40
2014,09,01,03,48,14.40
2014,09,01,03,49,14.40
2014,09,01,03,50,14.40
2014,09,01,03,51,14.40
2014,09,01,03,52,14.40
2014,09,01,03,53,14.40
2014,09,01,03,54,14.30
2014,09,01,03,55,14.30
2014,09,01,03,56,14.30
2014,09,01,03,57,14.20
2014,09,01,03,58,14.20
2014,09,01,03,59,14.20
2014,09,01,04,00,14.20
2014,09,01,04,01,14.20
2014,09,01,04,02,14.10
2014,09,01,04,03,14.10
2014,09,01,04,04,14.00
2014,09,01,04,05,14.00
2014,09,01,04,06,13.90
2014,09,01,04,07,13.90
2014,09,01,04,08,13.80
2014,09,01,04,09,13.80
2014,09,01,04,10,13.80
2014,09,01,04,11,13.80
2014,09,01,04,12,13.80
2014,09,01,04,13,13.80
2014,09,01,04,14,13.80
2014,09,01,04,15,13.80
2014,09,01,04,16,13.70
2014,09,01,04,17,13.70
2014,09,01,04,18,13.70
2014,09,01,04,19,13.70
2014,09,01,04,20,13.70
2014,09,01,04,21,13.60
2014,09,01,04,22,13.60
2014,09,01,04,23,13.60
2014,09,01,04,24,13.50
2014,09,01,04,25,13.50
2014,09,01,04,26,13.50
2014,09,01,04,27,13.50
2014,09,01,04,28,13.40
2014,09,01,04,29,13.40
2014,09,01,04,30,13.40
2014,09,01,04,31,13.30
2014,09,01,04,32,13.30
2014,09,01,04,33,13.30
2014,09,01,04,34,13.30
2014,09,01,04,35,13.20
2014,09,01,04,36,13.20
2014,09,01,04,37,13.10
2014,09,01,04,38,13.10
2014,09,01,04,39,13.10
2014,09,01,04,40,13.00
2014,09,01,04,41,13.00
2014,09,01,04,42,12.90
2014,09,01,04,43,12.90
2014,09,01,04,44,12.90
2014,09,01,04,45,12.90
2014,09,01,04,46,12.80
2014,09,01,04,47,12.80
2014,09,01,04,48,12.80
2014,09,01,04,49,12.80
2014,09,01,04,50,12.70
2014,09,01,04,51,12.70
2014,09,01,04,52,12.70
2014,09,01,04,53,12.70
2014,09,01,04,54,12.60
2014,09,01,04,55,12.60
2014,09,01,04,56,12.60
2014,09,01,04,57,12.60
2014,09,01,04,58,12.60
2014,09,01,04,59,12.50
2014,09,01,05,00,12.50
2014,09,01,05,01,12.50
2014,09,01,05,02,12.50
2014,09,01,05,03,12.50
2014,09,01,05,04,12.50
2014,09,01,05,05,12.50
2014,09,01,05,06,12.50
2014,09,01,05,07,12.50
2014,09,01,05,08,12.50
2014,09,01,05,09,12.50
2014,09,01,05,10,12.50
2014,09,01,05,11,12.60
2014,09,01,05,12,12.60
2014,09,01,05,13,12.50
2014,09,01,05,14,12.60
2014,09,01,05,15,12.60
2014,09,01,05,16,12.60
2014,09,01,05,17,12.60
2014,09,01,05,18,12.60
2014,09,01,05,19,12.60
2014,09,01,05,20,12.60
2014,09,01,05,21,12.60
2014,09,01,05,22,12.60
2014,09,01,05,23,12.60
2014,09,01,05,24,12.60
2014,09,01,05,25,12.60
2014,09,01,05,26,12.60
2014,09,01,05,27,12.60
2014,09,01,05,28,12.70
2014,09,01,05,29,12.70
2014,09,01,05,30,12.70
2014,09,01,05,31,12.80
2014,09,01,05,32,12.80
2014,09,01,05,33,12.90
2014,09,01,05,34,12.90
2014,09,01,05,35,13.00
2014,09,01,05,36,13.00
2014,09,01,05,37,13.00
2014,09,01,05,38,13.10
2014,09,01,05,39,13.10
2014,09,01,05,40,13.10
2014,09,01,05,41,13.10
2014,09,01,05,42,13.10
2014,09,01,05,43,13.10
2014,09,01,05,44,13.00
2014,09,01,05,45,13.00
2014,09,01,05,46,13.00
2014,09,01,05,47,13.10
2014,09,01,05,48,13.10
2014,09,01,05,49,13.10
2014,09,01,05,50,13.10
2014,09,01,05,51,13.00
2014,09,01,05,52,13.00
2014,09,01,05,53,13.00
2014,09,01,05,54,12.90
2014,09,01,05,55,12.90
2014,09,01,05,56,12.90
2014,09,01,05,57,12.90
2014,09,01,05,58,12.90
2014,09,01,05,59,12.90
2014,09,01,06,00,12.90
2014,09,01,06,01,12.90
2014,09,01,06,02,12.80
2014,09,01,06,03,12.80
2014,09,01,06,04,12.80
2014,09,01,06,05,12.80
2014,09,01,06,06,12.70
2014,09,01,06,07,12.70
2014,09,01,06,08,12.60
2014,09,01,06,09,12.60
2014,09,01,06,10,12.50
2014,09,01,06,11,12.50
2014,09,01,06,12,12.40
2014,09,01,06,13,12.40
2014,09,01,06,14,12.40
2014,09,01,06,15,12.40
2014,09,01,06,16,12.30
2014,09,01,06,17,12.30
2014,09,01,06,18,12.30
2014,09,01,06,19,12.30
2014,09,01,06,20,12.30
2014,09,01,06,21,12.30
2014,09,01,06,22,12.30
2014,09,01,06,23,12.30
2014,09,01,06,24,12.30
2014,09,01,06,25,12.40
2014,09,01,06,26,12.40
2014,09,01,06,27,12.40
2014,09,01,06,28,12.40
2014,09,01,06,29,12.40
2014,09,01,06,30,12.40
2014,09,01,06,31,12.40
2014,09,01,06,32,12.40
2014,09,01,06,33,12.40
2014,09,01,06,34,12.40
2014,09,01,06,35,12.50
2014,09,01,06,36,12.50
2014,09,01,06,37,12.50
2014,09,01,06,38,12.50
2014,09,01,06,39,12.50
2014,09,01,06,40,12.40
2014,09,01,06,41,12.40
2014,09,01,06,42,12.40
2014,09,01,06,43,12.40
2014,09,01,06,44,12.40
2014,09,01,06,45,12.30
2014,09,01,06,46,12.30
2014,09,01,06,47,12.30
2014,09,01,06,48,12.30
2014,09,01,06,49,12.30
2014,09,01,06,50,12.30
2014,09,01,06,51,12.30
2014,09,01,06,52,12.30
2014,09,01,06,53,12.30
2014,09,01,06,54,12.30
2014,09,01,06,55,12.30
2014,09,01,06,56,12.30
2014,09,01,06,57,12.30
2014,09,01,06,58,12.30
2014,09,01,06,59,12.40
2014,09,01,07,00,12.50
2014,09,01,07,01,12.50
2014,09,01,07,02,12.60
2014,09,01,07,03,12.70
2014,09,01,07,04,12.80
2014,09,01,07,05,12.90
2014,09,01,07,06,13.00
2014,09,01,07,07,13.10
2014,09,01,07,08,13.10
2014,09,01,07,09,13.20
2014,09,01,07,10,13.20
2014,09,01,07,11,13.20
2014,09,01,07,12,13.20
2014,09,01,07,13,13.30
2014,09,01,07,14,13.30
2014,09,01,07,15,13.30
2014,09,01,07,16,13.30
2014,09,01,07,17,13.30
2014,09,01,07,18,13.30
2014,09,01,07,19,13.40
2014,09,01,07,20,13.40
2014,09,01,07,21,13.40
2014,09,01,07,22,13.40
2014,09,01,07,23,13.50
2014,09,01,07,24,13.50
2014,09,01,07,25,13.60
2014,09,01,07,26,13.60
2014,09,01,07,27,13.60
2014,09,01,07,28,13.70
2014,09,01,07,29,13.70
2014,09,01,07,30,13.80
2014,09,01,07,31,13.80
2014,09,01,07,32,13.90
2014,09,01,07,33,14.00
2014,09,01,07,34,14.00
2014,09,01,07,35,14.10
2014,09,01,07,36,14.20
2014,09,01,07,37,14.30
2014,09,01,07,38,14.30
2014,09,01,07,39,14.40
2014,09,01,07,40,14.50
2014,09,01,07,41,14.60
2014,09,01,07,42,14.60
2014,09,01,07,43,14.70
2014,09,01,07,44,14.80
2014,09,01,07,45,14.80
2014,09,01,07,46,14.90
2014,09,01,07,47,14.90
2014,09,01,07,48,14.90
2014,09,01,07,49,15.00
2014,09,01,07,50,15.00
2014,09,01,07,51,15.00
2014,09,01,07,52,15.00
2014,09,01,07,53,15.00
2014,09,01,07,54,15.00
2014,09,01,07,55,15.00
2014,09,01,07,56,15.00
2014,09,01,07,57,15.00
2014,09,01,07,58,15.00
2014,09,01,07,59,15.00
2014,09,01,08,00,15.00
2014,09,01,08,01,15.00
2014,09,01,08,02,15.00
2014,09,01,08,03,15.00
2014,09,01,08,04,15.00
2014,09,01,08,05,15.00
2014,09,01,08,06,15.00
2014,09,01,08,07,15.00
2014,09,01,08,08,15.00
2014,09,01,08,09,15.00
2014,09,01,08,10,15.10
2014,09,01,08,11,15.10
2014,09,01,08,12,15.20
2014,09,01,08,13,15.20
2014,09,01,08,14,15.30
2014,09,01,08,15,15.30
2014,09,01,08,16,15.40
2014,09,01,08,17,15.50
2014,09,01,08,18,15.60
2014,09,01,08,19,15.60
2014,09,01,08,20,15.70
2014,09,01,08,21,15.70
2014,09,01,08,22,15.80
2014,09,01,08,23,15.80
2014,09,01,08,24,15.80
2014,09,01,08,25,15.90
2014,09,01,08,26,15.90
2014,09,01,08,27,15.90
2014,09,01,08,28,15.90
2014,09,01,08,29,15.90
2014,09,01,08,30,15.90
2014,09,01,08,31,16.00
2014,09,01,08,32,16.00
2014,09,01,08,33,16.10
2014,09,01,08,34,16.10
2014,09,01,08,35,16.10
2014,09,01,08,36,16.20
2014,09,01,08,37,16.20
2014,09,01,08,38,16.30
2014,09,01,08,39,16.30
2014,09,01,08,40,16.40
2014,09,01,08,41,16.50
2014,09,01,08,42,16.50
2014,09,01,08,43,16.60
2014,09,01,08,44,16.70
2014,09,01,08,45,16.70
2014,09,01,08,46,16.80
2014,09,01,08,47,16.80
2014,09,01,08,48,16.90
2014,09,01,08,49,16.90
2014,09,01,08,50,16.90
2014,09,01,08,51,17.00
2014,09,01,08,52,17.10
2014,09,01,08,53,17.10
2014,09,01,08,54,17.10
2014,09,01,08,55,17.20
2014,09,01,08,56,17.20
2014,09,01,08,57,17.20
2014,09,01,08,58,17.30
2014,09,01,08,59,17.30
2014,09,01,09,00,17.30
2014,09,01,09,01,17.30
2014,09,01,09,02,17.40
2014,09,01,09,03,17.40
2014,09,01,09,04,17.50
2014,09,01,09,05,17.60
2014,09,01,09,06,17.60
2014,09,01,09,07,17.60
2014,09,01,09,08,17.70
2014,09,01,09,09,17.70
2014,09,01,09,10,17.60
2014,09,01,09,11,17.60
2014,09,01,09,12,17.60
2014,09,01,09,13,17.70
2014,09,01,09,14,17.70
2014,09,01,09,15,17.80
2014,09,01,09,16,17.90
2014,09,01,09,17,18.00
2014,09,01,09,18,18.00
2014,09,01,09,19,18.00
2014,09,01,09,20,18.00
2014,09,01,09,21,18.00
2014,09,01,09,22,18.00
2014,09,01,09,23,18.00
2014,09,01,09,24,18.10
2014,09,01,09,25,18.20
2014,09,01,09,26,18.30
2014,09,01,09,27,18.30
2014,09,01,09,28,18.40
2014,09,01,09,29,18.50
2014,09,01,09,30,18.60
2014,09,01,09,31,18.70
2014,09,01,09,32,18.80
2014,09,01,09,33,18.80
2014,09,01,09,34,18.90
2014,09,01,09,35,19.00
2014,09,01,09,36,19.10
2014,09,01,09,37,19.10
2014,09,01,09,38,19.20
2014,09,01,09,39,19.20
2014,09,01,09,40,19.30
2014,09,01,09,41,19.30
2014,09,01,09,42,19.40
2014,09,01,09,43,19.40
2014,09,01,09,44,19.40
2014,09,01,09,45,19.50
2014,09,01,09,46,19.50
2014,09,01,09,47,19.40
2014,09,01,09,48,19.30
2014,09,01,09,49,19.20
2014,09,01,09,50,19.10
2014,09,01,09,51,19.10
2014,09,01,09,52,19.20
2014,09,01,09,53,19.20
2014,09,01,09,54,19.30
2014,09,01,09,55,19.40
2014,09,01,09,56,19.40
2014,09,01,09,57,19.40
2014,09,01,09,58,19.50
2014,09,01,09,59,19.50
2014,09,01,10,00,19.40
2014,09,01,10,01,19.50
2014,09,01,10,02,19.50
2014,09,01,10,03,19.50
2014,09,01,10,04,19.60
2014,09,01,10,05,19.60
2014,09,01,10,06,19.60
2014,09,01,10,07,19.60
2014,09,01,10,08,19.60
2014,09,01,10,09,19.70
2014,09,01,10,10,19.70
2014,09,01,10,11,19.70
2014,09,01,10,12,19.70
2014,09,01,10,13,19.80
2014,09,01,10,14,19.80
2014,09,01,10,15,19.90
2014,09,01,10,16,19.80
2014,09,01,10,17,19.80
2014,09,01,10,18,19.70
2014,09,01,10,19,19.60
2014,09,01,10,20,19.60
2014,09,01,10,21,19.50
2014,09,01,10,22,19.40
2014,09,01,10,23,19.40
2014,09,01,10,24,19.40
2014,09,01,10,25,19.50
2014,09,01,10,26,19.50
2014,09,01,10,27,19.60
2014,09,01,10,28,19.60
2014,09,01,10,29,19.60
2014,09,01,10,30,19.50
2014,09,01,10,31,19.40
2014,09,01,10,32,19.40
2014,09,01,10,33,19.40
2014,09,01,10,34,19.40
2014,09,01,10,35,19.40
2014,09,01,10,36,19.40
2014,09,01,10,37,19.30
2014,09,01,10,38,19.10
2014,09,01,10,39,18.90
2014,09,01,10,40,18.70
2014,09,01,10,41,18.60
2014,09,01,10,42,18.50
2014,09,01,10,43,18.40
2014,09,01,10,44,18.40
2014,09,01,10,45,18.40
2014,09,01,10,46,18.40
2014,09,01,10,47,18.30
2014,09,01,10,48,18.30
2014,09,01,10,49,18.30
2014,09,01,10,50,18.30
2014,09,01,10,51,18.30
2014,09,01,10,52,18.30
2014,09,01,10,53,18.30
2014,09,01,10,54,18.30
2014,09,01,10,55,18.30
2014,09,01,10,56,18.40
2014,09,01,10,57,18.30
2014,09,01,10,58,18.30
2014,09,01,10,59,18.40
2014,09,01,11,00,18.50
2014,09,01,11,01,18.50
2014,09,01,11,02,18.60
2014,09,01,11,03,18.50
2014,09,01,11,04,18.50
2014,09,01,11,05,18.50
2014,09,01,11,06,18.40
2014,09,01,11,07,18.40
2014,09,01,11,08,18.40
2014,09,01,11,09,18.30
2014,09,01,11,10,18.40
2014,09,01,11,11,18.40
2014,09,01,11,12,18.50
2014,09,01,11,13,18.60
2014,09,01,11,14,18.70
2014,09,01,11,15,18.90
2014,09,01,11,16,19.10
2014,09,01,11,17,19.30
2014,09,01,11,18,19.40
2014,09,01,11,19,19.40
2014,09,01,11,20,19.50
2014,09,01,11,21,19.60
2014,09,01,11,22,19.60
2014,09,01,11,23,19.60
2014,09,01,11,24,19.50
2014,09,01,11,25,19.50
2014,09,01,11,26,19.40
2014,09,01,11,27,19.40
2014,09,01,11,28,19.50
2014,09,01,11,29,19.60
2014,09,01,11,30,19.70
2014,09,01,11,31,19.80
2014,09,01,11,32,19.80
2014,09,01,11,33,19.90
2014,09,01,11,34,19.90
2014,09,01,11,35,19.90
2014,09,01,11,36,19.90
2014,09,01,11,37,20.00
2014,09,01,11,38,20.00
2014,09,01,11,39,20.10
2014,09,01,11,40,20.10
2014,09,01,11,41,20.10
2014,09,01,11,42,20.10
2014,09,01,11,43,20.00
2014,09,01,11,44,19.90
2014,09,01,11,45,19.80
2014,09,01,11,46,19.80
2014,09,01,11,47,19.80
2014,09,01,11,48,19.80
2014,09,01,11,49,19.80
2014,09,01,11,50,19.70
2014,09,01,11,51,19.60
2014,09,01,11,52,19.60
2014,09,01,11,53,19.60
2014,09,01,11,54,19.60
2014,09,01,11,55,19.60
2014,09,01,11,56,19.60
2014,09,01,11,57,19.70
2014,09,01,11,58,19.70
2014,09,01,11,59,19.80
2014,09,01,12,00,19.90
2014,09,01,12,01,20.00
2014,09,01,12,02,20.00
2014,09,01,12,03,20.00
2014,09,01,12,04,20.10
2014,09,01,12,05,20.10
2014,09,01,12,06,20.00
2014,09,01,12,07,20.00
2014,09,01,12,08,20.00
2014,09,01,12,09,20.00
2014,09,01,12,10,20.10
2014,09,01,12,11,20.30
2014,09,01,12,12,20.40
2014,09,01,12,13,20.50
2014,09,01,12,14,20.50
2014,09,01,12,15,20.60
2014,09,01,12,16,20.70
2014,09,01,12,17,20.80
2014,09,01,12,18,20.80
2014,09,01,12,19,20.80
2014,09,01,12,20,20.90
2014,09,01,12,21,20.90
2014,09,01,12,22,20.90
2014,09,01,12,23,20.90
2014,09,01,12,24,21.00
2014,09,01,12,25,21.10
2014,09,01,12,26,21.00
2014,09,01,12,27,21.00
2014,09,01,12,28,21.00
2014,09,01,12,29,21.00
2014,09,01,12,30,21.00
2014,09,01,12,31,21.00
2014,09,01,12,32,21.10
2014,09,01,12,33,21.10
2014,09,01,12,34,21.20
2014,09,01,12,35,21.20
2014,09,01,12,36,21.30
2014,09,01,12,37,21.50
2014,09,01,12,38,21.60
2014,09,01,12,39,21.70
2014,09,01,12,40,21.80
2014,09,01,12,41,21.80
2014,09,01,12,42,21.80
2014,09,01,12,43,21.80
2014,09,01,12,44,21.80
2014,09,01,12,45,21.80
2014,09,01,12,46,21.80
2014,09,01,12,47,21.90
2014,09,01,12,48,21.80
2014,09,01,12,49,21.80
2014,09,01,12,50,21.80
2014,09,01,12,51,21.90
2014,09,01,12,52,21.80
2014,09,01,12,53,21.80
2014,09,01,12,54,21.80
2014,09,01,12,55,21.70
2014,09,01,12,56,21.60
2014,09,01,12,57,21.40
2014,09,01,12,58,21.40
2014,09,01,12,59,21.30
2014,09,01,13,00,21.30
2014,09,01,13,01,21.30
2014,09,01,13,02,21.20
2014,09,01,13,03,21.10
2014,09,01,13,04,21.00
2014,09,01,13,05,21.00
2014,09,01,13,06,21.10
2014,09,01,13,07,21.10
2014,09,01,13,08,21.10
2014,09,01,13,09,21.10
2014,09,01,13,10,21.10
2014,09,01,13,11,21.10
2014,09,01,13,12,21.10
2014,09,01,13,13,21.10
2014,09,01,13,14,21.10
2014,09,01,13,15,21.10
2014,09,01,13,16,21.10
2014,09,01,13,17,21.00
2014,09,01,13,18,21.00
2014,09,01,13,19,20.90
2014,09,01,13,20,20.90
2014,09,01,13,21,20.80
2014,09,01,13,22,20.80
2014,09,01,13,23,20.80
2014,09,01,13,24,20.80
2014,09,01,13,25,20.80
2014,09,01,13,26,20.80
2014,09,01,13,27,20.90
2014,09,01,13,28,20.90
2014,09,01,13,29,21.00
2014,09,01,13,30,21.00
2014,09,01,13,31,21.00
2014,09,01,13,32,21.00
2014,09,01,13,33,21.00
2014,09,01,13,34,21.00
2014,09,01,13,35,21.00
2014,09,01,13,36,21.00
2014,09,01,13,37,20.90
2014,09,01,13,38,20.80
2014,09,01,13,39,20.70
2014,09,01,13,40,20.60
2014,09,01,13,41,20.50
2014,09,01,13,42,20.50
2014,09,01,13,43,20.50
2014,09,01,13,44,20.50
2014,09,01,13,45,20.60
2014,09,01,13,46,20.60
2014,09,01,13,47,20.80
2014,09,01,13,48,20.90
2014,09,01,13,49,21.10
2014,09,01,13,50,21.30
2014,09,01,13,51,21.50
2014,09,01,13,52,21.50
2014,09,01,13,53,21.40
2014,09,01,13,54,21.40
2014,09,01,13,55,21.40
2014,09,01,13,56,21.50
2014,09,01,13,57,21.60
2014,09,01,13,58,21.80
2014,09,01,13,59,21.90
2014,09,01,14,00,22.00
2014,09,01,14,01,22.10
2014,09,01,14,02,22.20
2014,09,01,14,03,22.20
2014,09,01,14,04,22.20
2014,09,01,14,05,22.20
2014,09,01,14,06,22.20
2014,09,01,14,07,22.20
2014,09,01,14,08,22.20
2014,09,01,14,09,22.10
2014,09,01,14,10,22.00
2014,09,01,14,11,21.90
2014,09,01,14,12,21.90
2014,09,01,14,13,21.80
2014,09,01,14,14,21.70
2014,09,01,14,15,21.50
2014,09,01,14,16,21.40
2014,09,01,14,17,21.40
2014,09,01,14,18,21.30
2014,09,01,14,19,21.30
2014,09,01,14,20,21.30
2014,09,01,14,21,21.20
2014,09,01,14,22,21.00
2014,09,01,14,23,20.90
2014,09,01,14,24,20.80
2014,09,01,14,25,20.80
2014,09,01,14,26,20.80
2014,09,01,14,27,20.70
2014,09,01,14,28,20.60
2014,09,01,14,29,20.60
2014,09,01,14,30,20.50
2014,09,01,14,31,20.40
2014,09,01,14,32,20.30
2014,09,01,14,33,20.20
2014,09,01,14,34,20.20
2014,09,01,14,35,20.10
2014,09,01,14,36,20.10
2014,09,01,14,37,20.10
2014,09,01,14,38,20.10
2014,09,01,14,39,20.10
2014,09,01,14,40,20.10
2014,09,01,14,41,20.20
2014,09,01,14,42,20.20
2014,09,01,14,43,20.30
2014,09,01,14,44,20.40
2014,09,01,14,45,20.50
2014,09,01,14,46,20.60
2014,09,01,14,47,20.70
2014,09,01,14,48,20.60
2014,09,01,14,49,20.50
2014,09,01,14,50,20.50
2014,09,01,14,51,20.50
2014,09,01,14,52,20.50
2014,09,01,14,53,20.40
2014,09,01,14,54,20.50
2014,09,01,14,55,20.50
2014,09,01,14,56,20.50
2014,09,01,14,57,20.50
2014,09,01,14,58,20.50
2014,09,01,14,59,20.60
2014,09,01,15,00,20.60
2014,09,01,15,01,20.60
2014,09,01,15,02,20.70
2014,09,01,15,03,20.80
2014,09,01,15,04,20.80
2014,09,01,15,05,20.80
2014,09,01,15,06,20.80
2014,09,01,15,07,20.80
2014,09,01,15,08,20.80
2014,09,01,15,09,20.70
2014,09,01,15,10,20.70
2014,09,01,15,11,20.60
2014,09,01,15,12,20.50
2014,09,01,15,13,20.40
2014,09,01,15,14,20.30
2014,09,01,15,15,20.20
2014,09,01,15,16,20.20
2014,09,01,15,17,20.20
2014,09,01,15,18,20.20
2014,09,01,15,19,20.20
2014,09,01,15,20,20.20
2014,09,01,15,21,20.20
2014,09,01,15,22,20.20
2014,09,01,15,23,20.20
2014,09,01,15,24,20.20
2014,09,01,15,25,20.20
2014,09,01,15,26,20.10
2014,09,01,15,27,20.10
2014,09,01,15,28,20.10
2014,09,01,15,29,20.10
2014,09,01,15,30,20.10
2014,09,01,15,31,20.10
2014,09,01,15,32,20.10
2014,09,01,15,33,20.10
2014,09,01,15,34,20.10
2014,09,01,15,35,20.10
2014,09,01,15,36,20.20
2014,09,01,15,37,20.20
2014,09,01,15,38,20.30
2014,09,01,15,39,20.30
2014,09,01,15,40,20.30
2014,09,01,15,41,20.30
2014,09,01,15,42,20.40
2014,09,01,15,43,20.50
2014,09,01,15,44,20.50
2014,09,01,15,45,20.60
2014,09,01,15,46,20.70
2014,09,01,15,47,20.70
2014,09,01,15,48,20.70
2014,09,01,15,49,20.80
2014,09,01,15,50,20.80
2014,09,01,15,51,20.70
2014,09,01,15,52,20.70
2014,09,01,15,53,20.70
2014,09,01,15,54,20.60
2014,09,01,15,55,20.60
2014,09,01,15,56,20.60
2014,09,01,15,57,20.60
2014,09,01,15,58,20.60
2014,09,01,15,59,20.70
2014,09,01,16,00,20.70
2014,09,01,16,01,20.70
2014,09,01,16,02,20.70
2014,09,01,16,03,20.80
2014,09,01,16,04,20.80
2014,09,01,16,05,20.80
2014,09,01,16,06,20.80
2014,09,01,16,07,20.80
2014,09,01,16,08,20.70
2014,09,01,16,09,20.70
2014,09,01,16,10,20.70
2014,09,01,16,11,20.60
2014,09,01,16,12,20.60
2014,09,01,16,13,20.60
2014,09,01,16,14,20.60
2014,09,01,16,15,20.60
2014,09,01,16,16,20.60
2014,09,01,16,17,20.60
2014,09,01,16,18,20.60
2014,09,01,16,19,20.60
2014,09,01,16,20,20.60
2014,09,01,16,21,20.50
2014,09,01,16,22,20.50
2014,09,01,16,23,20.40
2014,09,01,16,24,20.40
2014,09,01,16,25,20.30
2014,09,01,16,26,20.30
2014,09,01,16,27,20.30
2014,09,01,16,28,20.30
2014,09,01,16,29,20.30
2014,09,01,16,30,20.30
2014,09,01,16,31,20.30
2014,09,01,16,32,20.30
2014,09,01,16,33,20.30
2014,09,01,16,34,20.30
2014,09,01,16,35,20.30
2014,09,01,16,36,20.30
2014,09,01,16,37,20.30
2014,09,01,16,38,20.30
2014,09,01,16,39,20.30
2014,09,01,16,40,20.30
2014,09,01,16,41,20.30
2014,09,01,16,42,20.30
2014,09,01,16,43,20.30
2014,09,01,16,44,20.30
2014,09,01,16,45,20.30
2014,09,01,16,46,20.30
2014,09,01,16,47,20.20
2014,09,01,16,48,20.20
2014,09,01,16,49,20.20
2014,09,01,16,50,20.20
2014,09,01,16,51,20.10
2014,09,01,16,52,20.10
2014,09,01,16,53,20.10
2014,09,01,16,54,20.00
2014,09,01,16,55,20.00
2014,09,01,16,56,19.90
2014,09,01,16,57,19.90
2014,09,01,16,58,19.90
2014,09,01,16,59,19.90
2014,09,01,17,00,19.90
2014,09,01,17,01,19.90
2014,09,01,17,02,19.90
2014,09,01,17,03,19.90
2014,09,01,17,04,19.90
2014,09,01,17,05,19.80
2014,09,01,17,06,19.80
2014,09,01,17,07,19.80
2014,09,01,17,08,19.80
2014,09,01,17,09,19.90
2014,09,01,17,10,19.90
2014,09,01,17,11,19.90
2014,09,01,17,12,19.90
2014,09,01,17,13,20.00
2014,09,01,17,14,20.00
2014,09,01,17,15,20.00
2014,09,01,17,16,20.00
2014,09,01,17,17,20.00
2014,09,01,17,18,20.00
2014,09,01,17,19,20.00